CAPE
712 365 177 104 58 85 121 62 57 109 68 62 12 5 28 56 84 53 212 139 252 282 203 45 56 57 8 0 1 0 0 0 0 0 0 0 0 0 0 0 0 0 0
710 389 298 206 73 71 143 128 87 211 124 110 42 56 147 204 115 102 360 275 139 152 117 0 3 2 0 0 0 0 0 0 0 0 0 0 0 0 0 0 0 0 0
774 477 317 240 127 112 150 148 154 293 175 210 88 167 256 258 95 223 215 198 73 45 36 0 0 0 0 0 0 0 0 0 0 0 0 0 0 0 0 0 0 0 0
843 541 334 238 166 121 186 154 192 292 208 205 128 234 310 269 101 193 183 105 5 0 0 0 0 0 0 0 0 0 0 0 0 0 0 0 0 0 0 0 0 0 0
811 569 312 249 201 170 144 152 214 301 297 232 219 333 580 447 351 219 110 43 0 0 0 0 0 0 0 0 0 0 0 0 0 0 0 0 0 0 0 0 0 0 0
566 640 305 130 83 110 188 153 274 316 366 294 408 417 545 432 374 157 78 0 0 0 0 0 0 0 0 0 0 0 0 0 0 0 0 0 0 0 0 0 0 0 0
720 750 579 432 60 1 277 171 267 392 470 488 359 637 527 400 400 214 77 0 0 0 0 0 0 0 0 0 0 0 0 0 0 0 0 0 0 0 0 0 0 0 0
175 545 811 806 285 9 428 405 406 439 729 604 460 661 516 304 377 190 87 7 0 0 0 0 0 0 0 0 0 0 0 0 0 0 0 0 0 0 0 0 0 0 0
392 593 1006 999 545 443 586 653 489 751 711 739 757 443 423 293 315 162 23 14 0 0 0 0 0 0 0 0 0 0 0 0 0 0 0 0 0 0 0 0 0 0 0
112 130 122 263 706 837 842 1104 902 719 477 456 502 422 299 489 430 104 21 0 0 0 0 0 0 0 0 0 0 0 0 0 0 0 0 0 0 0 0 0 0 0 0
332 38 0 0 15 506 86 921 771 701 570 384 373 405 231 190 48 0 0 0 0 0 0 0 0 0 0 0 0 0 0 0 0 0 0 0 0 0 0 0 0 0 0
1 0 0 0 0 113 376 646 551 312 280 220 145 92 3 0 4 0 0 0 0 0 0 0 0 0 0 0 0 0 0 0 0 0 0 0 0 0 0 0 0 0 0
0 0 0 0 0 0 0 3 0 65 84 81 13 18 2 4 0 0 0 0 0 0 0 0 0 0 0 0 0 0 0 0 0 0 0 0 0 0 0 0 0 0 0
0 0 0 0 0 0 0 0 0 0 0 0 0 0 1 2 2 2 2 3 1 0 0 0 0 0 0 0 0 0 0 0 0 0 0 0 0 0 0 0 0 0 0
0 0 0 0 0 0 0 0 0 0 1 1 0 0 1 1 1 1 2 2 2 0 0 0 0 0 0 0 0 0 0 0 0 0 0 0 0 0 0 0 0 0 0
0 0 0 0 0 0 0 0 0 0 0 0 1 0 0 0 0 1 1 2 1 0 0 0 0 0 0 0 0 0 0 0 0 0 0 0 0 0 0 0 0 0 0
0 0 0 0 0 0 0 0 0 2 0 0 0 0 1 1 1 1 1 2 1 0 0 0 0 0 0 0 0 0 0 0 0 0 0 0 0 0 0 0 0 0 0
0 0 0 0 0 0 0 0 0 1 0 0 0 0 0 1 0 0 0 0 1 1 1 0 0 0 0 0 0 0 0 0 0 0 0 0 0 0 0 0 0 0 0
0 0 0 0 0 0 0 0 0 0 0 3 5 4 0 0 1 0 0 1 1 1 0 0 0 0 0 0 0 0 0 0 0 0 0 0 0 0 0 0 0 0 0
0 0 0 0 0 0 0 0 0 0 0 0 2 2 1 0 0 0 0 0 1 0 0 0 0 0 0 0 0 0 0 0 0 0 0 0 0 0 0 0 0 0 0
0 0 0 0 0 0 0 0 0 0 0 0 0 3 1 0 0 1 0 0 0 0 0 0 0 0 0 0 0 0 0 0 0 0 0 0 0 0 0 0 0 0 0
0 0 0 0 0 0 0 0 0 0 0 0 0 0 4 0 0 0 2 1 0 0 0 0 0 0 0 0 0 0 0 0 0 0 0 0 0 0 0 0 0 0 0
0 0 0 0 0 0 0 0 0 0 0 0 0 0 0 2 0 0 0 2 0 0 0 0 0 0 0 0 0 0 0 0 0 0 0 0 0 0 0 0 0 0 0
0 0 0 0 0 0 0 0 0 0 0 0 0 0 0 0 2 0 0 0 0 0 0 0 0 0 0 0 0 0 0 0 0 0 0 0 0 0 0 0 0 0 0
0 0 0 0 0 0 0 0 0 0 0 0 0 0 0 0 0 2 0 0 0 0 0 0 0 0 0 0 0 0 0 0 0 0 0 0 0 0 0 0 0 0 0
0 0 0 0 0 0 0 0 0 0 0 0 0 0 0 0 0 0 0 0 0 0 0 0 0 0 0 0 0 0 0 0 0 0 0 0 0 0 0 0 0 0 0
CIN
-119 -163 -205 -183 -207 -217 -325 -369 -307 -227 -242 -205 -259 -145 -165 -98 -98 -125 -34 -21 -4 -5 -15 -58 -73 -68 -3 -0 -33 -0 -0 -0 -0 -0 -0 -0 -0 -0 -0 -0 -0 -0 -0
-93 -137 -184 -153 -220 -217 -313 -361 -349 -211 -240 -202 -199 -146 -73 -31 -83 -94 -25 -11 -29 -28 -41 -0 -35 -26 -0 -0 -0 -0 -0 -0 -0 -0 -0 -0 -0 -0 -0 -0 -0 -0 -0
-57 -120 -200 -173 -207 -218 -318 -368 -339 -229 -245 -159 -161 -63 -31 -28 -111 -51 -47 -20 -65 -72 -80 -0 -0 -0 -0 -0 -0 -0 -0 -0 -0 -0 -0 -0 -0 -0 -0 -0 -0 -0 -0
-36 -93 -187 -176 -208 -227 -296 -330 -312 -254 -227 -152 -163 -76 -43 -45 -70 -37 -44 -60 -150 -0 -0 -0 -0 -0 -0 -0 -0 -0 -0 -0 -0 -0 -0 -0 -0 -0 -0 -0 -0 -0 -0
-29 -73 -190 -212 -206 -204 -295 -301 -261 -256 -187 -149 -108 -46 -4 -5 -10 -20 -78 -144 -0 -0 -0 -0 -0 -0 -0 -0 -0 -0 -0 -0 -0 -0 -0 -0 -0 -0 -0 -0 -0 -0 -0
-20 -27 -139 -249 -232 -192 -224 -225 -201 -190 -151 -122 -45 -27 -5 -3 -4 -63 -131 -0 -0 -0 -0 -0 -0 -0 -0 -0 -0 -0 -0 -0 -0 -0 -0 -0 -0 -0 -0 -0 -0 -0 -0
-52 -28 -12 -119 -162 -40 -179 -188 -163 -152 -109 -117 -46 -33 -7 -5 -6 -65 -167 -142 -0 -0 -0 -0 -0 -0 -0 -0 -0 -0 -0 -0 -0 -0 -0 -0 -0 -0 -0 -0 -0 -0 -0
-15 -75 -7 -133 -185 -85 -96 -110 -83 -58 -24 -58 -66 -28 -59 -26 -14 -61 -153 -211 -0 -0 -0 -0 -0 -0 -0 -0 -0 -0 -0 -0 -0 -0 -0 -0 -0 -0 -0 -0 -0 -0 -0
-103 -171 -74 -6 -81 -85 -45 -67 -44 -4 -25 -35 -40 -54 -63 -69 -44 -24 -118 -137 -0 -0 -0 -0 -0 -0 -0 -0 -0 -0 -0 -0 -0 -0 -0 -0 -0 -0 -0 -0 -0 -0 -0
-254 -242 -151 -124 -72 -19 -26 -15 -21 -28 -90 -106 -87 -148 -120 -48 -65 -56 -136 -34 -0 -0 -0 -0 -0 -0 -0 -0 -0 -0 -0 -0 -0 -0 -0 -0 -0 -0 -0 -0 -0 -0 -0
-165 -214 -0 -0 -254 -24 -34 -10 -12 -26 -37 -81 -41 -55 -83 -101 -167 -0 -0 -0 -0 -0 -0 -0 -0 -0 -0 -0 -0 -0 -0 -0 -0 -0 -0 -0 -0 -0 -0 -0 -0 -0 -0
-23 -0 -0 -0 -0 -280 -65 -17 -40 -51 -54 -91 -66 -63 -31 -0 -60 -0 -0 -0 -0 -0 -0 -0 -0 -0 -0 -0 -0 -0 -0 -0 -0 -0 -0 -0 -0 -0 -0 -0 -0 -0 -0
-0 -0 -0 -0 -0 -0 -0 -284 -0 -162 -60 -81 -89 -62 -16 -223 -0 -0 -0 -0 -0 -0 -0 -0 -0 -0 -0 -0 -0 -0 -0 -0 -0 -0 -0 -0 -0 -0 -0 -0 -0 -0 -0
-0 -0 -0 -0 -0 -0 -0 -0 -0 -0 -0 -0 -0 -0 -0 -0 -0 -0 -0 -0 -0 -0 -0 -0 -0 -0 -0 -0 -0 -0 -0 -0 -0 -0 -0 -0 -0 -0 -0 -0 -0 -0 -0
-0 -0 -0 -0 -0 -0 -0 -0 -0 -0 -0 -0 -0 -0 -0 -0 -0 -0 -0 -0 -0 -0 -0 -0 -0 -0 -0 -0 -0 -0 -0 -0 -0 -0 -0 -0 -0 -0 -0 -0 -0 -0 -0
-0 -0 -0 -0 -0 -0 -0 -0 -1 -0 -0 -0 -0 -0 -0 -0 -0 -0 -0 -0 -0 -0 -0 -0 -0 -0 -0 -0 -0 -0 -0 -0 -0 -0 -0 -0 -0 -0 -0 -0 -0 -0 -0
-0 -0 -0 -0 -0 -0 -0 -0 -0 -4 -0 -0 -0 -0 -0 -0 -0 -0 -0 -0 -0 -0 -0 -0 -0 -0 -0 -0 -0 -0 -0 -0 -0 -0 -0 -0 -0 -0 -0 -0 -0 -0 -0
-0 -0 -0 -0 -0 -0 -0 -1 -1 -0 -10 -5 -0 -0 -0 -0 -0 -0 -0 -0 -0 -0 -0 -0 -0 -0 -0 -0 -0 -0 -0 -0 -0 -0 -0 -0 -0 -0 -0 -0 -0 -0 -0
-0 -0 -0 -0 -0 -0 -0 -0 -0 -0 -0 -1 -2 -1 -0 -0 -0 -0 -0 -0 -0 -0 -0 -0 -0 -0 -0 -0 -0 -0 -0 -0 -0 -0 -0 -0 -0 -0 -0 -0 -0 -0 -0
-0 -0 -0 -0 -0 -0 -0 -0 -0 -0 -0 -0 -1 -7 -1 -0 -0 -0 -0 -0 -0 -0 -0 -0 -0 -0 -0 -0 -0 -0 -0 -0 -0 -0 -0 -0 -0 -0 -0 -0 -0 -0 -0
-0 -0 -0 -0 -0 -0 -0 -0 -0 -0 -0 -0 -0 -2 -11 -0 -0 -0 -0 -0 -0 -0 -0 -0 -0 -0 -0 -0 -0 -0 -0 -0 -0 -0 -0 -0 -0 -0 -0 -0 -0 -0 -0
-0 -0 -0 -0 -0 -0 -0 -0 -0 -0 -0 -0 -0 -0 -9 -0 -0 -0 -0 -0 -0 -0 -0 -0 -0 -0 -0 -0 -0 -0 -0 -0 -0 -0 -0 -0 -0 -0 -0 -0 -0 -0 -0
-0 -0 -0 -0 -0 -0 -0 -0 -0 -0 -0 -0 -0 -0 -0 -17 -0 -0 -0 -0 -0 -0 -0 -0 -0 -0 -0 -0 -0 -0 -0 -0 -0 -0 -0 -0 -0 -0 -0 -0 -0 -0 -0
-0 -0 -0 -0 -0 -0 -0 -0 -0 -0 -0 -0 -0 -0 -0 -0 -12 -2 -0 -0 -0 -0 -0 -0 -0 -0 -0 -0 -0 -0 -0 -0 -0 -0 -0 -0 -0 -0 -0 -0 -0 -0 -0
-0 -0 -0 -0 -0 -0 -0 -0 -0 -0 -0 -0 -0 -0 -0 -0 -0 -7 -0 -0 -0 -0 -0 -0 -0 -0 -0 -0 -0 -0 -0 -0 -0 -0 -0 -0 -0 -0 -0 -0 -0 -0 -0
-0 -0 -0 -0 -0 -0 -0 -0 -0 -0 -0 -0 -0 -0 -0 -0 -0 -0 -0 -0 -0 -0 -0 -0 -0 -0 -0 -0 -0 -0 -0 -0 -0 -0 -0 -0 -0 -0 -0 -0 -0 -0 -0
Wind_Speed
18 26 20 18 20 16 15 15 14 12 12 10 11 10 7 12 5 5 3 2 5 7 12 5 5 6 6 7 8 9 9 10 11 13 15 16 16 14 13 13 14 15 16
21 23 26 23 20 22 17 15 15 14 13 11 13 13 8 12 7 6 3 4 3 6 9 5 4 6 8 7 7 7 8 8 8 10 12 13 14 13 13 13 14 14 14
23 23 24 25 23 26 23 17 16 16 15 14 15 14 10 10 8 8 7 8 7 7 8 8 7 7 8 7 6 5 5 6 5 6 12 14 14 9 12 11 12 13 14
22 26 25 26 25 22 23 19 18 18 17 17 16 15 13 13 13 11 10 10 9 9 10 8 9 8 10 8 7 5 5 6 4 5 9 13 12 11 13 10 12 13 13
23 26 29 26 24 23 22 19 22 21 21 20 18 19 16 15 14 12 9 10 11 11 11 10 10 8 9 8 7 7 7 6 6 7 8 10 9 9 12 11 11 8 10
27 28 30 31 26 24 22 22 21 21 21 22 19 19 21 17 15 13 12 12 13 14 13 11 11 11 12 11 11 9 7 10 9 9 8 8 7 9 11 15 9 9 10
24 30 33 29 27 27 25 25 24 24 22 24 24 20 20 21 19 15 13 12 13 15 14 12 12 12 13 13 13 12 12 11 13 13 9 8 8 12 9 10 9 10 10
29 24 37 27 28 27 26 25 25 25 24 21 23 22 20 21 20 18 15 16 13 14 13 14 12 12 12 12 13 13 14 14 15 15 15 12 14 13 13 14 7 11 12
27 24 29 22 23 24 27 26 27 26 24 23 20 19 22 21 22 15 12 13 12 14 13 13 12 12 13 13 13 14 15 16 16 16 15 15 14 14 12 13 6 9 15
18 24 25 24 22 21 23 25 26 28 26 25 24 22 22 25 20 19 13 9 8 14 14 14 14 14 12 13 12 9 12 14 15 15 14 15 14 14 14 13 9 9 13
14 19 21 22 27 19 29 32 31 26 26 25 26 25 23 22 21 20 14 10 7 11 11 10 9 10 12 12 12 11 11 10 11 13 14 11 13 14 15 15 13 13 14
17 17 18 18 17 14 13 14 22 20 22 21 22 22 21 20 15 14 12 10 9 8 7 6 6 6 9 10 12 14 13 12 11 9 11 9 12 13 12 12 12 13 12
15 17 17 17 16 14 15 17 17 18 21 20 20 18 22 17 17 15 14 12 11 10 9 8 8 6 7 8 12 15 13 12 11 9 9 9 10 12 12 11 12 11 11
11 13 14 15 15 14 14 17 18 17 16 18 19 18 20 18 16 16 14 14 12 10 9 7 7 9 6 6 6 6 6 9 8 9 10 11 10 10 9 8 9 10 10
8 10 12 13 15 15 15 14 14 15 16 16 18 17 16 15 16 17 14 12 11 9 7 8 8 8 8 9 7 5 3 1 2 1 2 8 6 4 7 7 9 9 10
7 8 9 11 13 15 16 15 13 13 15 16 17 17 18 18 17 15 14 13 12 12 10 8 8 7 8 5 3 1 2 1 1 4 5 2 3 5 7 8 10 11 8
8 8 10 11 13 14 15 14 13 10 10 12 15 16 17 16 17 16 16 16 15 14 12 10 10 11 10 7 4 3 4 5 6 4 5 7 2 4 7 10 10 12 13
10 10 10 10 13 13 13 12 11 11 10 11 13 13 15 15 15 14 14 14 14 15 13 12 11 11 10 7 7 4 5 3 3 2 4 5 4 6 6 8 9 10 12
12 12 11 11 13 14 13 12 12 12 13 12 13 13 13 14 14 14 14 14 15 15 15 14 13 12 10 7 7 5 6 5 4 4 5 6 6 7 5 6 7 8 11
15 15 14 13 14 15 15 13 14 14 15 16 15 13 14 13 13 13 14 14 14 15 15 15 13 12 11 8 8 7 7 6 6 5 5 6 6 5 6 7 8 9 7
17 18 17 17 17 17 18 16 17 18 18 19 18 16 14 14 13 14 14 14 15 15 16 16 16 15 12 10 10 10 9 8 8 8 8 8 8 7 8 8 10 10 8
21 21 22 21 20 20 19 20 20 20 21 21 20 21 17 16 15 16 16 16 16 16 17 18 19 18 15 12 12 12 12 10 11 11 10 10 10 9 9 9 12 8 8
27 26 26 24 24 23 23 23 22 22 22 22 23 22 22 20 17 18 19 19 20 20 20 20 21 21 19 16 14 14 15 14 16 13 12 10 10 10 10 10 10 9 10
28 28 28 28 28 26 25 26 26 25 24 25 25 25 24 24 22 22 21 22 23 24 24 23 23 23 20 18 16 16 16 17 18 18 13 11 11 11 11 11 12 12 12
31 30 30 31 31 31 30 29 28 29 29 28 27 28 27 25 27 26 26 26 25 25 26 26 26 26 26 24 21 19 18 18 18 17 13 13 14 14 14 14 15 15 15
35 34 33 33 33 33 33 32 32 30 31 32 31 30 29 30 29 29 29 28 29 29 29 27 26 27 28 27 24 23 21 19 19 21 19 17 17 18 19 19 18 17 18
Wind_Direction
220 231 216 222 221 206 193 191 212 201 206 217 225 239 228 249 243 256 179 229 281 282 276 335 338 332 16 37 27 28 36 34 37 30 20 11 13 23 32 35 32 26 21
217 220 223 225 218 220 208 202 204 204 205 223 234 241 227 249 245 251 225 254 273 286 283 334 343 334 344 5 15 28 28 35 49 25 25 15 10 10 15 17 19 24 31
214 214 214 223 223 227 220 207 205 201 207 229 234 241 236 242 240 244 250 263 271 281 290 303 317 320 339 348 359 24 37 22 54 59 17 7 3 28 14 15 20 17 18
215 213 212 216 223 219 217 217 209 207 211 223 230 234 234 232 242 247 259 265 268 276 283 295 310 317 324 339 346 360 2 6 7 358 345 357 4 2 4 12 7 7 10
216 207 207 208 215 220 209 211 220 220 221 226 234 240 238 242 244 250 254 262 267 274 281 291 301 312 317 329 339 338 337 344 346 342 341 348 359 1 2 1 4 22 20
206 222 206 196 202 218 216 213 212 210 222 225 232 236 241 241 244 244 251 260 267 271 277 286 297 306 310 315 320 326 324 330 326 332 339 337 339 344 344 346 1 7 13
233 237 218 208 200 205 214 213 215 217 218 226 232 235 235 245 248 243 248 255 265 268 272 282 292 302 309 315 316 318 317 312 320 322 327 332 334 339 346 356 356 356 9
241 219 183 201 202 201 211 216 220 221 224 218 226 236 235 244 263 243 252 261 267 267 268 279 291 302 306 312 313 314 314 312 311 314 319 317 324 330 334 344 355 352 351
260 264 256 245 210 210 219 220 222 229 221 219 220 226 239 242 256 250 249 261 259 265 269 280 289 298 306 308 310 310 309 309 307 308 307 314 320 322 322 331 340 339 338
272 274 277 265 239 218 225 228 226 228 227 228 230 225 232 250 252 250 243 239 243 262 269 282 290 298 308 300 306 314 316 306 305 307 307 304 313 317 323 328 337 340 341
268 274 276 272 290 260 252 244 241 231 236 238 238 246 247 247 249 252 249 250 249 258 270 286 290 301 306 308 310 307 315 308 310 306 299 309 309 310 312 320 331 330 333
268 274 281 288 282 279 261 258 250 244 242 242 246 243 236 240 231 233 246 251 264 268 263 272 296 304 311 311 308 302 305 299 303 303 301 309 306 308 317 327 333 339 343
267 274 278 283 284 276 266 263 267 258 263 255 267 272 250 247 247 245 251 255 262 265 265 273 283 295 307 315 316 311 304 302 301 298 300 305 307 309 319 329 335 344 357
266 275 282 284 285 280 271 270 270 273 270 265 268 265 268 270 263 258 258 260 261 258 262 267 279 295 302 316 344 339 294 291 295 298 298 299 305 314 324 335 337 341 351
264 278 286 290 290 290 284 278 274 272 272 270 269 271 273 276 271 268 266 261 259 248 250 255 283 300 310 318 325 349 10 259 314 85 346 317 331 355 338 332 332 337 337
261 278 293 301 301 300 297 290 286 283 276 276 275 277 277 276 274 274 271 264 257 257 259 261 270 279 302 316 329 45 9 5 88 311 330 357 23 353 340 339 336 333 330
267 277 289 297 305 305 308 303 295 293 299 289 285 286 285 282 278 276 270 265 259 258 259 259 266 273 287 275 263 291 322 309 305 295 298 306 320 327 318 324 328 333 333
271 280 288 297 301 308 310 313 310 306 300 301 299 297 292 287 284 280 276 267 259 258 260 259 262 273 274 250 244 261 292 292 276 239 284 292 286 297 300 312 320 323 328
277 283 289 295 298 300 304 309 311 309 303 306 301 300 302 295 287 284 279 275 267 263 261 263 265 270 271 240 228 247 291 287 279 281 286 293 287 289 282 300 310 317 319
279 280 285 291 297 297 298 300 302 305 304 303 303 302 302 303 298 289 287 284 278 271 267 268 264 267 271 239 227 234 285 273 274 278 284 280 280 263 263 294 296 302 306
283 282 284 283 289 294 293 293 295 296 299 301 302 301 300 304 305 301 293 289 284 278 272 269 272 271 268 253 242 235 273 270 272 274 285 284 279 262 261 282 295 297 300
280 282 282 282 287 288 290 290 289 293 295 295 299 298 296 297 302 304 299 292 288 282 276 273 271 274 273 261 252 241 247 277 278 277 282 285 279 262 254 270 302 293 298
276 279 279 280 282 285 285 284 287 289 292 293 294 296 301 291 292 298 298 294 288 284 281 276 273 278 272 271 261 251 242 272 292 284 285 281 275 268 267 270 287 298 297
275 278 279 278 279 281 282 283 284 286 287 289 291 293 296 296 292 291 293 293 291 285 282 279 275 277 278 273 273 270 261 263 286 296 283 280 279 276 270 273 277 283 289
275 276 277 278 278 279 280 283 283 284 284 286 288 291 292 295 293 292 287 288 289 287 285 282 279 275 273 272 270 271 270 263 270 286 288 283 282 280 279 277 277 277 282
275 275 276 276 277 279 280 282 283 284 284 282 286 287 289 290 291 291 291 289 287 285 285 285 283 283 280 277 269 267 267 261 258 276 272 271 275 277 279 281 279 276 273